TimeMDT,TemperatureF,Dew PointF,Humidity,Sea Level PressureIn,VisibilityMPH,Wind Direction,Wind SpeedMPH,Gust SpeedMPH,PrecipitationIn,Events,Conditions,WindDirDegrees,DateUTC
12:05 AM,46.4,42.8,87,29.86,10.0,Calm,Calm,-,0.00,Rain,Light Rain,0,2013-09-23 06:05:00
12:14 AM,46.4,44.6,93,29.86,10.0,Calm,Calm,-,0.01,Rain,Light Rain,0,2013-09-23 06:14:00
12:53 AM,46.0,44.1,93,29.76,10.0,Calm,Calm,-,0.02,Rain,Light Rain,0,2013-09-23 06:53:00
1:01 AM,46.4,44.6,93,29.86,9.0,West,3.5,-,0.00,Rain,Light Rain,270,2013-09-23 07:01:00
1:10 AM,46.4,44.6,93,29.86,9.0,Calm,Calm,-,0.01,Rain,Light Rain,0,2013-09-23 07:10:00
1:53 AM,46.0,43.0,89,29.77,10.0,Calm,Calm,-,0.03,Rain,Light Rain,0,2013-09-23 07:53:00
2:29 AM,46.4,44.6,93,29.88,10.0,Calm,Calm,-,0.02,Rain,Light Rain,0,2013-09-23 08:29:00
2:39 AM,46.4,44.6,93,29.88,10.0,Calm,Calm,-,0.03,Rain,Light Rain,0,2013-09-23 08:39:00
2:53 AM,46.0,45.0,96,29.77,10.0,Calm,Calm,-,0.03,Rain,Light Rain,0,2013-09-23 08:53:00
3:03 AM,46.4,44.6,93,29.89,10.0,Calm,Calm,-,0.00,Rain,Light Rain,0,2013-09-23 09:03:00
3:13 AM,46.4,44.6,93,29.89,10.0,Calm,Calm,-,0.00,Rain,Light Rain,0,2013-09-23 09:13:00
3:53 AM,46.0,44.1,93,29.80,10.0,NNE,3.5,-,0.01,Rain,Light Rain,30,2013-09-23 09:53:00
4:53 AM,46.9,44.1,90,29.82,10.0,Calm,Calm,-,0.00,Rain,Light Rain,0,2013-09-23 10:53:00
5:16 AM,46.4,44.6,93,29.93,10.0,NNW,3.5,-,0.00,,Overcast,330,2013-09-23 11:16:00
5:53 AM,46.9,45.0,93,29.86,10.0,West,5.8,-,0.00,,Overcast,280,2013-09-23 11:53:00
6:04 AM,46.4,44.6,93,29.94,10.0,WNW,4.6,-,N/A,,Mostly Cloudy,290,2013-09-23 12:04:00
6:14 AM,46.4,44.6,93,29.95,10.0,West,3.5,-,N/A,,Overcast,280,2013-09-23 12:14:00
6:23 AM,46.4,44.6,93,29.95,10.0,West,4.6,-,N/A,,Overcast,280,2013-09-23 12:23:00
6:30 AM,46.4,44.6,93,29.95,10.0,Calm,Calm,-,N/A,,Overcast,0,2013-09-23 12:30:00
6:53 AM,46.9,45.0,93,29.90,10.0,SW,4.6,-,N/A,,Overcast,230,2013-09-23 12:53:00
7:22 AM,48.2,44.6,87,29.98,10.0,West,8.1,-,N/A,,Mostly Cloudy,260,2013-09-23 13:22:00
7:53 AM,46.9,44.1,90,29.93,10.0,WNW,8.1,-,0.01,,Clear,290,2013-09-23 13:53:00
8:53 AM,51.1,45.0,80,29.94,10.0,West,12.7,-,N/A,,Partly Cloudy,280,2013-09-23 14:53:00
9:53 AM,53.1,45.0,74,29.96,10.0,West,6.9,-,N/A,,Mostly Cloudy,270,2013-09-23 15:53:00
10:53 AM,57.0,39.9,53,29.96,10.0,WNW,8.1,-,N/A,,Mostly Cloudy,290,2013-09-23 16:53:00
11:53 AM,57.9,37.9,47,29.97,10.0,West,8.1,-,N/A,,Mostly Cloudy,270,2013-09-23 17:53:00
12:53 PM,60.1,34.0,38,29.97,10.0,Calm,Calm,-,N/A,,Mostly Cloudy,0,2013-09-23 18:53:00
1:53 PM,61.0,36.0,39,29.96,9.0,West,8.1,-,N/A,,Mostly Cloudy,270,2013-09-23 19:53:00
2:53 PM,63.0,37.9,40,29.96,10.0,West,9.2,-,N/A,,Partly Cloudy,260,2013-09-23 20:53:00
3:53 PM,64.0,37.9,38,29.97,10.0,WSW,10.4,-,N/A,,Partly Cloudy,240,2013-09-23 21:53:00
4:53 PM,64.0,36.0,35,29.97,10.0,WSW,10.4,-,N/A,,Clear,240,2013-09-23 22:53:00
5:53 PM,63.0,39.9,43,29.98,10.0,West,9.2,-,N/A,,Clear,280,2013-09-23 23:53:00
6:53 PM,60.1,39.9,47,30.01,10.0,West,10.4,-,N/A,,Clear,260,2013-09-24 00:53:00
7:53 PM,57.0,41.0,55,30.04,10.0,West,10.4,-,N/A,,Clear,270,2013-09-24 01:53:00
8:53 PM,54.0,39.9,59,30.07,10.0,ENE,4.6,-,N/A,,Clear,70,2013-09-24 02:53:00
9:53 PM,50.0,39.9,68,30.10,10.0,East,5.8,-,N/A,,Clear,80,2013-09-24 03:53:00
10:53 PM,50.0,39.0,66,30.11,10.0,East,9.2,-,N/A,,Clear,100,2013-09-24 04:53:00
11:53 PM,48.9,39.0,69,30.12,10.0,Calm,Calm,-,N/A,,Clear,0,2013-09-24 05:53:00